Weather in Issy-les-Moulineaux

France     48°49′14″N   2°15′47″E
temp.,
°C
wind,
m/s
gust,
m/s
humid.,
%
clouds,
%
prec.,
mm/h
press.,
hPa
HPBL,
m
6 march, sat
sat601:00+3ne495465 0.0 1030520
04:00+2ne48600 0.0 1030467
07:00+2ne48640 0.0 1031442
10:00+4ne48490 0.0 1031652
13:00+8ene47310 0.0 1031961
16:00+9ene47310 0.0 10281177
19:00+7ene47410 0.0 1028912
22:00+6ene38430 0.0 1029660
7 march, sun
sun701:00+4ne36520 0.0 1028385
04:00+2ne36560 0.0 1026310
07:00+1ne36550 0.0 1026316
10:00+3ne35450 0.0 1026365
13:00+8ne34300 0.0 1025783
16:00+9nne34290 0.0 10231103
19:00+7nne35420 0.0 1023867
22:00+5nne37530 0.0 1025542
8 march, mon
mon801:00+4nne36620 0.0 1024396
04:00+2nne35700 0.0 1024270
07:00+1n35730 0.0 1024261
10:00+3nne34630 0.0 1024363
13:00+7nne23410 0.0 1024853
16:00+9n223314 0.0 10221062
19:00+7n244222 0.0 1022530
22:00+6n124922 0.0 102261
9 march, tue
tue901:00+4nnw235612 0.0 1022206
04:00+3n127519 0.0 1023138
07:00+3nnw127824 0.0 102472
10:00+5nnw116544 0.0 1025333
13:00+9wsw114523 0.0 1025823
16:00+11sw12410 0.0 10231147
19:00+9wsw34490 0.0 1023742
22:00+7sw356125 0.0 1023260
10 march, wed
wed1001:00+6sw486763 0.0 1023399
04:00+5sw5117596 0.0 1021526
07:00+5sw6136998 0.0 1020648
10:00+6sw71465100 0.0 1020729
13:00+8sw71467100 0.0 1019863
16:00+12sw81560100 0.0 10161119
19:00+11sw71567100 0.0 10151129
22:00+9sw81673100 0.0 10141124